Time,TemperatureF,DewpointF,PressureIn,WindDirection,WindDirectionDegrees,WindSpeedMPH,WindSpeedGustMPH,Humidity,HourlyPrecipIn,Conditions,Clouds,dailyrainin,SolarRadiationWatts/m^2,SoftwareType,DateUTC
2013-04-26 00:03:00,55.0,41.0,-100.00,NE,35,3.0,10.0,59,0.00,,,0.02,0.000000,,2013-04-26 04:03:00,
2013-04-26 00:12:00,55.0,41.0,-100.00,NE,35,3.0,10.0,59,0.00,,,0.02,0.000000,,2013-04-26 04:12:00,
2013-04-26 00:23:00,55.0,41.0,-100.00,NE,35,3.0,10.0,59,0.00,,,0.02,0.000000,,2013-04-26 04:23:00,
2013-04-26 00:53:00,55.0,43.0,-100.00,NE,35,4.0,8.0,63,0.00,,,0.02,0.000000,,2013-04-26 04:53:00,
2013-04-26 01:02:00,55.0,43.0,-100.00,NE,35,4.0,8.0,63,0.00,,,0.02,0.000000,,2013-04-26 05:02:00,
2013-04-26 01:13:00,55.0,43.0,-100.00,NE,35,4.0,8.0,63,0.00,,,0.02,0.000000,,2013-04-26 05:13:00,
2013-04-26 01:22:00,55.0,43.0,-100.00,NE,35,4.0,8.0,63,0.00,,,0.02,0.000000,,2013-04-26 05:22:00,
2013-04-26 01:52:00,55.0,43.0,-100.00,NNE,30,4.0,10.0,64,0.00,,,0.02,0.000000,,2013-04-26 05:52:00,
2013-04-26 02:02:00,55.0,43.0,-100.00,NNE,30,4.0,10.0,64,0.00,,,0.02,0.000000,,2013-04-26 06:02:00,
2013-04-26 02:12:00,55.0,43.0,-100.00,NNE,30,4.0,10.0,64,0.00,,,0.02,0.000000,,2013-04-26 06:12:00,
2013-04-26 02:22:00,55.0,43.0,-100.00,NNE,30,4.0,10.0,64,0.00,,,0.02,0.000000,,2013-04-26 06:22:00,
2013-04-26 02:52:00,56.0,44.0,-100.00,NE,37,3.0,9.0,64,0.00,,,0.02,0.000000,,2013-04-26 06:52:00,
2013-04-26 03:02:00,56.0,44.0,-100.00,NE,37,3.0,9.0,64,0.00,,,0.02,0.000000,,2013-04-26 07:02:00,
2013-04-26 03:12:00,56.0,44.0,-100.00,NE,37,3.0,9.0,64,0.00,,,0.02,0.000000,,2013-04-26 07:12:00,
2013-04-26 03:22:00,56.0,44.0,-100.00,NE,37,3.0,9.0,64,0.00,,,0.02,0.000000,,2013-04-26 07:22:00,
2013-04-26 03:52:00,56.0,44.0,-100.00,ENE,64,8.0,13.0,64,0.00,,,0.02,0.000000,,2013-04-26 07:52:00,
2013-04-26 04:03:00,56.0,44.0,-100.00,ENE,64,8.0,13.0,64,0.00,,,0.02,0.000000,,2013-04-26 08:03:00,
2013-04-26 04:11:00,56.0,44.0,-100.00,ENE,64,8.0,13.0,64,0.00,,,0.02,0.000000,,2013-04-26 08:11:00,
2013-04-26 04:22:00,56.0,44.0,-100.00,ENE,64,8.0,13.0,64,0.00,,,0.02,0.000000,,2013-04-26 08:22:00,
2013-04-26 04:52:00,55.0,43.0,-100.00,ENE,66,8.0,12.0,64,0.00,,,0.02,0.000000,,2013-04-26 08:52:00,
2013-04-26 05:02:00,55.0,43.0,-100.00,ENE,66,8.0,12.0,64,0.00,,,0.02,0.000000,,2013-04-26 09:02:00,
2013-04-26 05:12:00,55.0,43.0,-100.00,ENE,66,8.0,12.0,64,0.00,,,0.02,0.000000,,2013-04-26 09:12:00,
2013-04-26 05:22:00,55.0,43.0,-100.00,ENE,66,8.0,12.0,64,0.00,,,0.02,0.000000,,2013-04-26 09:22:00,
2013-04-26 05:53:00,55.0,42.0,-100.00,ENE,67,8.0,12.0,62,0.00,,,0.02,0.000000,,2013-04-26 09:53:00,
2013-04-26 06:03:00,55.0,42.0,-100.00,ENE,67,8.0,12.0,62,0.00,,,0.02,0.000000,,2013-04-26 10:03:00,
2013-04-26 06:12:00,55.0,42.0,-100.00,ENE,67,8.0,12.0,62,0.00,,,0.02,0.000000,,2013-04-26 10:12:00,
2013-04-26 06:23:00,55.0,42.0,-100.00,ENE,67,8.0,12.0,62,0.00,,,0.02,0.000000,,2013-04-26 10:23:00,
2013-04-26 06:52:00,55.0,41.0,-100.00,ENE,66,9.0,13.0,60,0.00,,,0.02,1.000000,,2013-04-26 10:52:00,
2013-04-26 07:02:00,55.0,41.0,-100.00,ENE,66,9.0,13.0,60,0.00,,,0.02,1.000000,,2013-04-26 11:02:00,
2013-04-26 07:11:00,55.0,41.0,-100.00,ENE,66,9.0,13.0,60,0.00,,,0.02,1.000000,,2013-04-26 11:11:00,
2013-04-26 07:22:00,55.0,41.0,-100.00,ENE,66,9.0,13.0,60,0.00,,,0.02,1.000000,,2013-04-26 11:22:00,
2013-04-26 07:52:00,58.0,43.0,-100.00,NNE,26,4.0,12.0,57,0.00,,,0.02,66.000000,,2013-04-26 11:52:00,
2013-04-26 08:02:00,58.0,43.0,-100.00,NNE,26,4.0,12.0,57,0.00,,,0.02,66.000000,,2013-04-26 12:02:00,
2013-04-26 08:11:00,58.0,43.0,-100.00,NNE,26,4.0,12.0,57,0.00,,,0.02,66.000000,,2013-04-26 12:11:00,
2013-04-26 08:21:00,58.0,43.0,-100.00,NNE,26,4.0,12.0,57,0.00,,,0.02,66.000000,,2013-04-26 12:21:00,
2013-04-26 08:52:00,60.0,43.0,-100.00,NE,51,4.0,9.0,54,0.00,,,0.02,86.000000,,2013-04-26 12:52:00,
2013-04-26 09:01:00,60.0,43.0,-100.00,NE,51,4.0,9.0,54,0.00,,,0.02,86.000000,,2013-04-26 13:01:00,
2013-04-26 09:11:00,60.0,43.0,-100.00,NE,51,4.0,9.0,54,0.00,,,0.02,86.000000,,2013-04-26 13:11:00,
2013-04-26 09:22:00,60.0,43.0,-100.00,NE,51,4.0,9.0,54,0.00,,,0.02,86.000000,,2013-04-26 13:22:00,
2013-04-26 09:52:00,62.0,45.0,-100.00,NE,38,5.0,10.0,54,0.00,,,0.02,149.000000,,2013-04-26 13:52:00,
2013-04-26 10:02:00,62.0,45.0,-100.00,NE,38,5.0,10.0,54,0.00,,,0.02,149.000000,,2013-04-26 14:02:00,
2013-04-26 10:11:00,62.0,45.0,-100.00,NE,38,5.0,10.0,54,0.00,,,0.02,149.000000,,2013-04-26 14:11:00,
2013-04-26 10:21:00,62.0,45.0,-100.00,NE,38,5.0,10.0,54,0.00,,,0.02,149.000000,,2013-04-26 14:21:00,
2013-04-26 10:52:00,62.0,46.0,-100.00,NE,48,5.0,12.0,55,0.00,,,0.02,670.000000,,2013-04-26 14:52:00,
2013-04-26 11:02:00,62.0,46.0,-100.00,NE,48,5.0,12.0,55,0.00,,,0.02,670.000000,,2013-04-26 15:02:00,
2013-04-26 11:12:00,62.0,46.0,-100.00,NE,48,5.0,12.0,55,0.00,,,0.02,670.000000,,2013-04-26 15:12:00,
2013-04-26 11:22:00,62.0,46.0,-100.00,NE,48,5.0,12.0,55,0.00,,,0.02,670.000000,,2013-04-26 15:22:00,
2013-04-26 11:53:00,63.0,46.0,-100.00,ENE,60,5.0,12.0,53,0.00,,,0.02,838.000000,,2013-04-26 15:53:00,
2013-04-26 12:03:00,63.0,46.0,-100.00,ENE,60,5.0,12.0,53,0.00,,,0.02,838.000000,,2013-04-26 16:03:00,
2013-04-26 12:13:00,63.0,46.0,-100.00,ENE,60,5.0,12.0,53,0.00,,,0.02,838.000000,,2013-04-26 16:13:00,
2013-04-26 12:23:00,63.0,46.0,-100.00,ENE,60,5.0,12.0,53,0.00,,,0.02,838.000000,,2013-04-26 16:23:00,
2013-04-26 12:53:00,64.0,46.0,-100.00,ENE,60,5.0,12.0,52,0.00,,,0.02,942.000000,,2013-04-26 16:53:00,
2013-04-26 13:02:00,64.0,46.0,-100.00,ENE,60,5.0,12.0,52,0.00,,,0.02,942.000000,,2013-04-26 17:02:00,
2013-04-26 13:12:00,64.0,46.0,-100.00,ENE,60,5.0,12.0,52,0.00,,,0.02,942.000000,,2013-04-26 17:12:00,
2013-04-26 13:22:00,64.0,46.0,-100.00,ENE,60,5.0,12.0,52,0.00,,,0.02,942.000000,,2013-04-26 17:22:00,
2013-04-26 13:52:00,64.0,47.0,-100.00,NE,56,6.0,14.0,53,0.00,,,0.02,982.000000,,2013-04-26 17:52:00,
2013-04-26 14:02:00,64.0,47.0,-100.00,NE,56,6.0,14.0,53,0.00,,,0.02,982.000000,,2013-04-26 18:02:00,
2013-04-26 14:12:00,64.0,47.0,-100.00,NE,56,6.0,14.0,53,0.00,,,0.02,982.000000,,2013-04-26 18:12:00,
2013-04-26 14:22:00,64.0,47.0,-100.00,NE,56,6.0,14.0,53,0.00,,,0.02,982.000000,,2013-04-26 18:22:00,
2013-04-26 14:52:00,64.0,47.0,-100.00,NE,54,6.0,14.0,54,0.00,,,0.02,958.000000,,2013-04-26 18:52:00,
2013-04-26 15:02:00,64.0,47.0,-100.00,NE,54,6.0,14.0,54,0.00,,,0.02,958.000000,,2013-04-26 19:02:00,
2013-04-26 15:12:00,64.0,47.0,-100.00,NE,54,6.0,14.0,54,0.00,,,0.02,958.000000,,2013-04-26 19:12:00,
2013-04-26 15:22:00,64.0,47.0,-100.00,NE,54,6.0,14.0,54,0.00,,,0.02,958.000000,,2013-04-26 19:22:00,
2013-04-26 15:52:00,64.0,47.0,-100.00,ENE,59,6.0,12.0,54,0.00,,,0.02,877.000000,,2013-04-26 19:52:00,
2013-04-26 16:02:00,64.0,47.0,-100.00,ENE,59,6.0,12.0,54,0.00,,,0.02,877.000000,,2013-04-26 20:02:00,
2013-04-26 16:11:00,64.0,47.0,-100.00,ENE,59,6.0,12.0,54,0.00,,,0.02,877.000000,,2013-04-26 20:11:00,
2013-04-26 16:22:00,64.0,47.0,-100.00,ENE,59,6.0,12.0,54,0.00,,,0.02,877.000000,,2013-04-26 20:22:00,
2013-04-26 16:52:00,64.0,47.0,-100.00,NE,50,5.0,12.0,55,0.00,,,0.02,738.000000,,2013-04-26 20:52:00,
2013-04-26 17:02:00,64.0,47.0,-100.00,NE,50,5.0,12.0,55,0.00,,,0.02,738.000000,,2013-04-26 21:02:00,
2013-04-26 17:11:00,64.0,47.0,-100.00,NE,50,5.0,12.0,55,0.00,,,0.02,738.000000,,2013-04-26 21:11:00,
2013-04-26 17:22:00,64.0,47.0,-100.00,NE,50,5.0,12.0,55,0.00,,,0.02,738.000000,,2013-04-26 21:22:00,
2013-04-26 17:53:00,64.0,48.0,-100.00,NE,44,4.0,12.0,56,0.00,,,0.02,379.000000,,2013-04-26 21:53:00,
2013-04-26 18:03:00,64.0,48.0,-100.00,NE,44,4.0,12.0,56,0.00,,,0.02,379.000000,,2013-04-26 22:03:00,
2013-04-26 18:13:00,64.0,48.0,-100.00,NE,44,4.0,12.0,56,0.00,,,0.02,379.000000,,2013-04-26 22:13:00,
2013-04-26 18:23:00,64.0,48.0,-100.00,NE,44,4.0,12.0,56,0.00,,,0.02,379.000000,,2013-04-26 22:23:00,
2013-04-26 18:52:00,60.0,45.0,-100.00,ENE,67,9.0,17.0,57,0.00,,,0.02,111.000000,,2013-04-26 22:52:00,
2013-04-26 19:02:00,60.0,45.0,-100.00,ENE,67,9.0,17.0,57,0.00,,,0.02,111.000000,,2013-04-26 23:02:00,
2013-04-26 19:12:00,60.0,45.0,-100.00,ENE,67,9.0,17.0,57,0.00,,,0.02,111.000000,,2013-04-26 23:12:00,
2013-04-26 19:21:00,60.0,45.0,-100.00,ENE,67,9.0,17.0,57,0.00,,,0.02,111.000000,,2013-04-26 23:21:00,
2013-04-26 19:52:00,60.0,45.0,-100.00,ENE,66,12.0,19.0,57,0.00,,,0.02,66.000000,,2013-04-26 23:52:00,
2013-04-26 20:01:00,60.0,45.0,-100.00,ENE,66,12.0,19.0,57,0.00,,,0.02,66.000000,,2013-04-27 00:01:00,
2013-04-26 20:12:00,60.0,45.0,-100.00,ENE,66,12.0,19.0,57,0.00,,,0.02,66.000000,,2013-04-27 00:12:00,
2013-04-26 20:21:00,60.0,45.0,-100.00,ENE,66,12.0,19.0,57,0.00,,,0.02,66.000000,,2013-04-27 00:21:00,
2013-04-26 20:52:00,58.0,45.0,-100.00,ENE,68,12.0,17.0,62,0.00,,,0.00,4.000000,,2013-04-27 00:52:00,
2013-04-26 21:01:00,58.0,45.0,-100.00,ENE,68,12.0,17.0,62,0.00,,,0.00,4.000000,,2013-04-27 01:01:00,
2013-04-26 21:12:00,58.0,45.0,-100.00,ENE,68,12.0,17.0,62,0.00,,,0.00,4.000000,,2013-04-27 01:12:00,
2013-04-26 21:21:00,58.0,45.0,-100.00,ENE,68,12.0,17.0,62,0.00,,,0.00,4.000000,,2013-04-27 01:21:00,
2013-04-26 21:52:00,58.0,44.0,-100.00,ENE,70,10.0,16.0,60,0.00,,,0.00,0.000000,,2013-04-27 01:52:00,
2013-04-26 22:02:00,58.0,44.0,-100.00,ENE,70,10.0,16.0,60,0.00,,,0.00,0.000000,,2013-04-27 02:02:00,
2013-04-26 22:11:00,58.0,44.0,-100.00,ENE,70,10.0,16.0,60,0.00,,,0.00,0.000000,,2013-04-27 02:11:00,
2013-04-26 22:22:00,58.0,44.0,-100.00,ENE,70,10.0,16.0,60,0.00,,,0.00,0.000000,,2013-04-27 02:22:00,
2013-04-26 22:52:00,58.0,45.0,-100.00,ENE,69,12.0,16.0,61,0.00,,,0.00,0.000000,,2013-04-27 02:52:00,
2013-04-26 23:02:00,58.0,45.0,-100.00,ENE,69,12.0,16.0,61,0.00,,,0.00,0.000000,,2013-04-27 03:02:00,
2013-04-26 23:11:00,58.0,45.0,-100.00,ENE,69,12.0,16.0,61,0.00,,,0.00,0.000000,,2013-04-27 03:11:00,
2013-04-26 23:22:00,58.0,45.0,-100.00,ENE,69,12.0,16.0,61,0.00,,,0.00,0.000000,,2013-04-27 03:22:00,
2013-04-26 23:53:00,58.0,45.0,-100.00,ENE,69,11.0,18.0,62,0.00,,,0.00,0.000000,,2013-04-27 03:53:00,